Location: George Washington National Forest Helicopter Landing Site
(38.6463°N, 79.0851°W)
Time: 00:51:11
(UTC-04:00)

Tiros 1 despin weight - Pass Details

Date: 25 August 2019
Orbit: 594 x 642 km, 48.2° (Epoch: 17 September)

Event Time Altitude Azimuth Distance (km) Brightness Sun altitude
Rises 05:20:38 0° 302° (WNW) 2,874 - -15.1°
Exits shadow 05:21:49 - 303° (WNW) 2,407 ? -14.9°
Reaches altitude 10° 05:22:55 10° 303° (WNW) 1,975 ? -14.7°
Maximum altitude 05:27:28 85° 30° (NNE) 627 ? -13.9°
Drops below altitude 10° 05:32:05 10° 122° (ESE) 1,997 ? -13.1°
Sets 05:34:25 0° 123° (ESE) 2,909 ? -12.7°
